User: anonymous   Login
Location: Unspecified
(0.0000°N, 0.0000°E)
Time: 23:56:23
(UTC+00:00)
Language:

GOMX4-A - Orbit

View from above orbital plane
View from above orbital plane
View from above satellite
View from above satellite

Ground track
Ground track

The orbit data is extracted from the following two-line orbital elements,

1 43197U 18015F   21023.61321850  .00001023  00000-0  43703-4 0  9990
2 43197  97.4621 157.1045 0020083  54.0571 316.8229 15.25010146165461
Epoch (UTC): 23 January 2021 14:43:02
Eccentricity: 0.0020083
inclination: 97.4621°
perigee height: 477 km
apogee height: 504 km
right ascension of ascending node: 157.1045°
argument of perigee: 54.0571°
revolutions per day: 15.25010146
mean anomaly at epoch: 316.8229°
orbit number at epoch: 16546

The dashed part of the orbit path shows where the satellite is in the earth's shadow,  

DLR